Regional Weather Roundup
Issued by NWS

Home | Current Version | Previous Version | Text Only | Print | Product List | Glossary On
Versions: 1 2 3 4 5 6 7 8 9 10 11 12 13 14 15 16 17 18 19 20 21 22 23 24 25 26 27 28 29 30 31 32 33 34 35 36 37 38 39 40 41 42 43 44 45 46 47 48 49 50
000
ASUS44 KOUN 200910
RWROK

WEATHER ROUNDUP FOR OKLAHOMA
NATIONAL WEATHER SERVICE NORMAN OK
300 AM CST FRI JAN 20 2017

NOTE: "FAIR" INDICATES FEW OR NO CLOUDS BELOW 12,000 FEET WITH NO
      SIGNIFICANT WEATHER AND/OR OBSTRUCTIONS TO VISIBILITY.

OKZ001>007-009>012-014-015-017-201000-
NORTHWEST OKLAHOMA AND THE PANHANDLE

CITY           SKY/WX    TMP DP  RH WIND       PRES   REMARKS
GAGE           CLOUDY    34  32  92 E3        29.48F FOG
GUYMON         FOG       36  36 100 N7        29.48S VSB 1/4 WCI  30
ENID/WOODRING  FOG       41  41 100 CALM      29.51R VSB 1/2
$$

OKZ016-021>023-033>039-044-045-201000-
SOUTHWEST OKLAHOMA

CITY           SKY/WX    TMP DP  RH WIND       PRES   REMARKS
LAWTON/REGL    PTCLDY    42  37  82 W7        29.52S
LAWTON/FT SILL MOCLDY    44  39  82 W8        29.50S
FREDERICK      CLOUDY    42  36  79 W8        29.51R
CLINTON        CLOUDY    36  33  89 CALM      29.52S
HOBART         PTCLDY    35  33  92 W7        29.52S WCI  29
ALTUS AFB      PTCLDY    38  33  84 W5        29.52S WCI  34
$$

OKZ018>020-024>031-201000-
CENTRAL OKLAHOMA

CITY           SKY/WX    TMP DP  RH WIND       PRES   REMARKS
OKLAHOMA CITY  FOG       45  45 100 S7        29.51S VSB 1/4
OKC/WILEY POST FOG       43  43 100 S7        29.51S VSB 1/4
OKC/TINKER AFB FOG       46  46 100 S7        29.50F VSB 1/2
STILLWATER     CLOUDY    50  48  93 SE9       29.53R
GUTHRIE        FOG       46  45  96 S9        29.52S VSB 1/2
$$

OKZ008-013-054>072-201000-
NORTHEAST OKLAHOMA

CITY           SKY/WX    TMP DP  RH WIND       PRES   REMARKS
TULSA          CLOUDY    50  48  93 SE6       29.56F
TULSA/JONES    CLOUDY    50  47  89 S5        29.56S
PONCA CITY     CLOUDY    50  46  86 SE7       29.53F
BARTLESVILLE   CLOUDY    47  45  93 CALM      29.57F
MUSKOGEE       PTCLDY    47  47 100 SE5       29.57F
$$

OKZ032-040>043-046>053-073>077-201000-
SOUTH CENTRAL/SOUTHEAST OKLAHOMA

CITY           SKY/WX    TMP DP  RH WIND       PRES   REMARKS
ARDMORE/DWNTWN CLEAR     45  43  93 CALM      29.56S
MCALESTER      PTCLDY    52  48  86 S7        29.57S
$$





USA.gov is the U.S. government's official web portal to all federal, state and local government web resources and services.